Location: Ducy
(49.2257°N, 0.6105°W)
Time: 02:34:09
(UTC+00:00)

Daily predictions for brighter satellites

Satellite Brightness Start Highest point End
(mag) Time Altitude Azimuth Time Altitude Azimuth Time Altitude Azimuth
ATLAS 5 CENTAUR R/B 4.3 04:15:16 14° NNE 04:15:16 14° NNE 04:16:19 10° NNE
COSMO-SKYMED 1 4.4 04:20:56 10° SE 04:23:43 28° E 04:23:43 28° E
GEOS 3 Rocket 4.0 04:39:30 10° ESE 04:44:30 57° NE 04:44:43 56° NNE
ATLAS CENTAUR R/B 3.0 04:45:49 31° ENE 04:45:49 31° ENE 04:48:44 10° ESE
Cosmos 1428 Rocket 4.5 04:42:41 38° N 04:45:21 82° E 04:51:40 10° SSE
Okean O Rocket 4.0 04:51:39 10° NE 04:55:13 23° E 04:58:46 10° SSE
Timation 1 Rocket 4.2 04:59:16 69° NW 04:59:16 69° NW 05:05:03 10° NNE
Cosmos 44 3.4 05:01:17 65° ENE 05:01:17 65° ENE 05:05:09 10° NE
Cosmos 2026 Rocket 3.9 05:05:53 57° NW 05:06:53 65° W 05:13:05 10° S
Cosmos 2263 Rocket 2.7 05:08:31 41° NNW 05:08:31 41° NNW 05:12:38 10° NNE
Meteor 2-4 Rocket 3.7 05:06:02 25° N 05:09:18 74° ENE 05:14:39 10° SSE
SKYMED 2 3.6 05:08:25 10° SSE 05:12:22 74° S 05:12:22 74° S
ALOS 3.1 05:08:17 10° NNE 05:12:51 50° E 05:17:23 10° S
Okean 3 3.4 05:15:28 75° SSE 05:15:28 75° SSE 05:19:21 10° S
Cosmos 405 3.8 05:15:56 50° ENE 05:15:56 50° ENE 05:19:20 10° SSE
Cosmos 371 Rocket 3.5 05:11:22 10° SSW 05:16:12 72° ESE 05:21:05 10° NNE
Cosmos 1331 Rocket 4.3 05:11:16 10° S 05:16:22 65° ESE 05:21:32 10° NNE
FENGYUN 3A 4.3 05:13:46 10° NNE 05:19:06 56° E 05:24:22 10° S
Cosmos 2279 Rocket 3.9 05:16:01 10° S 05:22:14 89° WNW 05:28:31 10° N
Cosmos 1833 Rocket 4.4 05:19:27 13° N 05:23:36 28° NE 05:28:25 10° ESE
SL-23 DEB 3.8 05:26:56 59° E 05:26:56 59° E 05:29:45 10° ENE
USA 116 4.3 05:21:57 10° SSE 05:26:47 82° ENE 05:31:08 15° NNW
Meteor 1-19 Rocket 4.2 05:26:32 48° WNW 05:27:28 54° W 05:32:57 10° S
Meteor 1-14 Rocket 4.3 05:21:52 10° SSW 05:27:46 61° WNW 05:33:42 10° N
Geosat 3.9 05:23:56 10° SSE 05:28:58 85° WSW 05:30:56 39° NNW
CZ-4B DEB 4.3 05:27:36 10° NNE 05:33:10 78° ESE 05:38:44 10° SSW
NOSS 3-3 (A) 4.5 05:28:55 29° NW 05:33:16 90° SSW 05:41:31 10° SE
NOSS 3-3 (C) 4.5 05:29:01 29° NW 05:33:21 90° SW 05:41:37 10° SE
Cosmos 1110 Rocket 3.8 05:29:06 10° SSW 05:34:17 83° WNW 05:39:30 10° NNE
Helios 1A Rocket 3.9 05:31:41 10° NNE 05:35:36 47° E 05:39:30 10° S
MOS 1-B 4.3 05:29:58 10° NNE 05:35:48 88° ESE 05:41:35 10° SSW
Cosmos 1844 Rocket 2.8 05:31:56 10° SSW 05:37:29 74° ESE 05:43:04 10° NNE
Cosmos 967 Rocket 4.5 05:34:17 28° NW 05:37:58 89° NE 05:44:28 10° SE
Cosmos 1634 Rocket 4.2 05:32:19 10° SW 05:38:13 45° WNW 05:44:09 10° N
BREEZE-M DEB (TANK) 3.7 05:45:59 15° S 05:45:59 15° S 05:47:01 10° SSE
USA 234 3.3 05:39:33 10° ENE 05:46:08 81° SE 05:52:41 10° SW
ATLAS 3B R/B 4.5 05:42:24 10° S 05:48:10 31° ESE 05:53:52 10° NE
Meteor 2-13 Rocket 4.4 05:43:03 10° NNW 05:49:05 60° W 05:55:07 10° S
SL-24 R/B 4.1 05:46:13 10° SSE 05:50:27 83° ENE 05:54:32 11° NNW
Cosmos 1844 3.9 05:45:05 10° SSW 05:50:51 75° ESE 05:56:38 10° NNE
CZ-4B R/B 3.5 05:46:40 10° NNE 05:52:19 75° ESE 05:57:59 10° S
Cosmos 1486 Rocket 4.0 05:49:33 17° NNW 05:53:44 83° ENE 05:59:00 10° SSE
NOSS 3-2 (C) 4.3 05:48:14 10° SSW 05:53:47 50° ESE 06:00:03 10° NE
COSMOS 2406 3.4 05:49:20 16° NNW 05:53:57 70° ENE 05:59:36 10° SE
BREEZE-M DEB (TANK) 2.9 05:52:55 26° W 05:56:22 87° N 05:59:14 10° E
ATLAS 5 CENTAUR R/B 3.7 05:56:48 15° NNW 05:58:40 17° N 06:02:19 10° NE
COSMO-SKYMED 1 3.4 05:57:09 10° SSW 06:00:55 30° W 06:00:55 30° W
IRIDIUM 114 4.5 05:56:23 10° N 06:01:38 77° E 06:06:51 10° S
Cosmos 44 Rocket 3.7 05:56:56 10° SSW 06:01:45 64° SE 06:06:30 10° NE
Cosmos 304 Rocket 3.7 06:02:29 10° SSW 06:07:16 87° WNW 06:12:06 10° NNE
H-2A R/B 3.9 06:04:30 10° NNE 06:08:08 45° E 06:11:47 10° S
Cosmos 1655 Rocket 4.2 06:03:23 10° NNW 06:09:17 46° W 06:15:09 10° SSW
Cosmos 1733 Rocket 3.2 06:05:20 10° SSW 06:09:30 48° WNW 06:13:43 10° N
IRIDIUM 103 4.3 06:05:34 10° N 06:10:49 90° NNW 06:16:03 10° S
Cosmos 2082 Rocket 3.3 06:08:16 10° NNW 06:13:35 40° NE 06:18:51 10° ESE
USA 81 4.0 06:10:13 10° N 06:15:32 86° W 06:20:48 10° S
Meteor 1-13 Rocket 4.5 06:10:17 10° NNW 06:15:33 45° W 06:20:52 10° SSW
Cosmos 1500 3.7 06:18:15 10° SW 06:21:46 34° WNW 06:25:17 10° N
GEOS 3 Rocket 4.3 06:18:09 10° S 06:22:45 34° WSW 06:25:50 19° WNW
CZ-4 R/B 4.3 06:21:08 10° NE 06:23:55 18° E 06:26:43 10° SE
ATLAS CENTAUR R/B 1.9 06:22:02 23° WNW 06:24:02 38° WSW 06:27:39 10° S
SJ-7 4.3 06:20:20 10° N 06:24:18 64° WNW 06:28:14 10° SSW
Meteor 1-23 Rocket 4.3 06:21:53 10° NNW 06:27:38 65° W 06:33:16 10° S
Cosmos 968 Rocket 3.4 06:22:29 10° NNW 06:27:40 83° WSW 06:32:46 10° SSE
Cosmos 1302 Rocket 4.0 06:23:48 10° SW 06:29:02 62° WNW 06:34:18 10° NNE
IRIDIUM 106 4.3 06:23:55 10° N 06:29:06 65° W 06:34:15 10° S
Cosmos 1536 3.0 06:25:27 10° SSW 06:29:23 48° WNW 06:33:20 10° N
Okean O Rocket 1.9 06:27:34 10° N 06:31:45 43° WNW 06:35:56 10° SW
Meteor 1-4 Rocket 4.4 06:28:35 10° N 06:31:57 31° ENE 06:35:14 10° SE
SMAP 3.1 06:32:15 10° NNE 06:36:57 85° ESE 06:41:36 10° SSW
Cosmos 2266 Rocket 4.3 06:31:24 10° NNW 06:37:09 41° W 06:42:47 10° SSW
Cosmos 1674 Rocket 4.5 06:34:15 12° NW 06:37:25 27° W 06:41:02 10° SW
Cosmos 1503 Rocket 4.0 06:32:25 10° NNW 06:37:46 77° WSW 06:43:06 10° SSE
Meteor 2-19 Rocket 4.5 06:32:49 10° NNW 06:38:57 65° W 06:45:00 10° S
NOSS 3-2 (A) 3.5 06:34:35 10° SW 06:40:27 67° NW 06:47:13 10° NE
Cosmos 1975 Rocket 3.1 06:36:36 10° N 06:41:05 85° W 06:45:34 10° S
Cosmos 389 Rocket 2.8 06:38:22 10° N 06:41:52 65° ENE 06:45:16 10° SSE
Cosmos 44 4.3 06:39:45 15° WNW 06:42:20 23° NNW 06:45:55 10° NNE
NOAA 6 4.4 06:39:24 10° N 06:44:12 41° WNW 06:48:59 10° SW
Cosmos 2098 Rocket 3.9 06:41:46 10° N 06:46:08 63° E 06:51:39 10° SSE
Cosmos 1782 Rocket 3.5 06:42:26 10° S 06:46:52 84° W 06:51:17 10° N
CENTAUR R/B 2.8 06:42:25 10° SW 06:48:28 81° SE 06:55:40 10° NE
SAR-Lupe-2 3.7 06:45:06 10° SSE 06:48:41 77° ENE 06:52:18 10° NNW
Meteor 1-11 Rocket 4.2 06:43:50 10° SW 06:49:17 40° WNW 06:54:53 10° N
ALOS 3.3 06:46:17 10° N 06:49:59 24° WNW 06:53:41 10° WSW
Cosmos 1354 Rocket 4.1 06:46:29 10° NNW 06:51:45 65° WSW 06:57:01 10° S
Cosmos 2263 Rocket 3.8 06:50:15 12° WNW 06:52:32 14° NNW 06:55:28 10° N
USA 238 DEB 3.8 06:47:14 10° WSW 06:53:50 56° NW 07:00:44 10° NE
Cosmos 2278 Rocket 2.5 06:48:13 10° SSW 06:53:51 73° ESE 06:59:31 10° NNE
USA 238 3.8 06:47:20 10° WSW 06:53:56 57° NW 07:00:50 10° NE
Cosmos 1378 3.2 06:50:28 10° N 06:54:14 81° E 06:57:59 10° SSE
Cosmos 1066 Rocket 4.4 06:49:25 10° NNW 06:54:41 46° W 06:59:49 10° SSW
Cosmos 1441 Rocket 3.2 06:52:15 10° SSW 06:56:11 64° WNW 07:00:05 10° N
ADEOS Rocket 3.2 06:51:44 10° S 06:58:16 56° W 07:04:11 10° NNW
Cosmos 1745 Rocket 4.3 06:52:28 10° N 06:58:40 70° ENE 07:04:47 10° SSE
Okean-O 2.8 06:55:47 10° NNE 07:00:15 80° ESE 07:04:41 10° SSW
EP 3 3.5 06:58:38 10° SW 07:00:41 60° NW 07:02:46 10° NE
Aureole 3 Rocket 4.3 06:57:00 10° S 07:03:22 62° E 07:07:54 10° NNE
Cosmos 1992 Rocket 4.0 06:58:38 10° SSW 07:03:49 76° WNW 07:09:04 10° NNE
Cosmos 1666 3.6 07:02:14 10° SW 07:05:31 27° WNW 07:08:48 10° NNW
Okean 2 Rocket 3.4 07:01:50 10° S 07:06:12 71° E 07:10:38 10° NNE
Cosmos 839 Rocket 4.5 07:00:37 10° NW 07:07:07 69° WSW 07:15:03 10° SSE
Cosmos 1833 Rocket 2.8 07:02:24 10° NNW 07:08:00 66° WSW 07:13:35 10° SSE
Helios 1A Rocket 4.2 07:07:33 10° NNW 07:10:28 20° WNW 07:13:23 10° WSW
Okean 2 3.5 07:07:31 10° NNW 07:11:31 53° W 07:15:29 10° S
IRS-1C Rocket 4.2 07:08:35 10° N 07:13:43 54° WNW 07:18:48 10° SW
Sich 1 Rocket 3.7 07:09:43 10° SSW 07:14:09 59° WNW 07:18:34 10° N
